N0BHC Weather Reports


Display with metric or nautical units.
time (UTC)temp
F
wind
direction
speed
MPH
gust
MPH
rain 1hr
in
rain 24hr
in
rain mn
in
humidity
%
barometer
mb
20200603035503 64 223 0.0 0.0 0.00 0.00 0.00 80 1010.4
20200603021002 66 223 0.0 0.0 0.00 0.00 0.00 80 1010.3
20200603002502 66 237 0.0 2.0 0.00 0.00 0.00 80 1009.4
20200603000527 66 17 2.0 7.0 0.00 0.00 0.00 80 1009.1
20200602235333 66 312 0.0 0.0 0.00 0.00 0.00 79 1009.6
20200602232502 69 79 0.0 3.0 0.00 0.00 0.00 72 1009.8
20200602222502 79 64 10.0 17.0 0.00 0.00 0.00 32 1010.1
20200602213938 82 63 6.0 10.0 0.00 0.00 0.00 23 1008.7
20200602211002 84 55 3.0 6.0 0.00 0.00 0.00 24 1009.1
20200602204002 85 97 6.0 6.0 0.00 0.00 0.00 23 1008.3
20200602202502 86 108 6.0 16.0 0.00 0.00 0.00 23 1008.4
20200602202252 86 108 6.0 0.0 0.00 0.00 0.00 23 1008.4
20200602202132 86 108 6.0 0.0 0.00 0.00 0.00 23 1008.4
20200602195102 86 108 6.0 0.0 0.00 0.00 0.00 23 1008.4
20200602193450 86 108 6.0 0.0 0.00 0.00 0.00 23 1008.4
20200602193416 86 108 6.0 0.0 0.00 0.00 0.00 23 1008.4
20200602192502 86 108 6.0 0.0 0.00 0.00 0.00 23 1008.4
20200602191442 86 160 3.0 7.0 0.00 0.00 0.00 22 1008.3
20200602182502 86 56 8.0 12.0 0.00 0.00 0.00 26 1009.3
20200602181002 85 64 5.0 7.0 0.00 0.00 0.00 32 1009.1
20200602175344 85 56 0.0 2.0 0.00 0.00 0.00 32 1008.5
20200602175311 85 56 0.0 2.0 0.00 0.00 0.00 32 1008.5
20200602171002 84 152 6.0 9.0 0.00 0.00 0.00 32 1008.2
20200602154002 80 178 2.0 8.0 0.00 0.00 0.00 39 1008.2
20200602152502 79 214 5.0 7.0 0.00 0.00 0.00 41 1008.3
20200602125503 71 145 0.0 0.0 0.00 0.00 0.00 75 1008.0
20200602122502 70 284 0.0 0.0 0.00 0.00 0.00 75 1007.9
20200602095503 71 250 0.0 0.0 0.00 0.00 0.00 64 1007.1
20200602091002 72 234 0.0 3.0 0.00 0.00 0.00 62 1006.8
20200602071002 74 276 3.0 7.0 0.00 0.00 0.00 58 1006.5
20200602065503 74 237 3.0 9.0 0.00 0.00 0.00 57 1006.5
20200602064002 75 216 2.0 6.0 0.00 0.00 0.00 57 1006.5
20200602061002 75 238 3.0 5.0 0.00 0.00 0.00 57 1006.5
20200602055503 75 264 5.0 8.0 0.00 0.00 0.00 57 1006.4
20200602044002 77 241 3.0 6.0 0.00 0.00 0.00 53 1006.4
20200602041002 78 254 6.0 6.0 0.00 0.00 0.00 51 1006.6